COSMOS 660

导读 | 豆包AI

COSMOS 660(宇宙660)隶属于苏联/独联体(CIS)“宇宙”号卫星系列,1974年6月18日发射入轨。“宇宙”系列是世界上规模最大的卫星家族,混编军用应用卫星、科学卫星和技术试验卫星,多数承担军事任务。作为系列中的一颗,它或用于空间技术试验、近地环境探测等任务,为苏联航天技术迭代与空间探索积累了关键数据。

Basic Information
目录编号:
7337
目录名称:
COSMOS 660
国际标识:
1974-044A
轨道中心:
EARTH
卫星名称:
COSMOS 660
卫星全名:
--
卫星状态:
在轨 (已飞行18943 天)
发射日期:
1974-06-18 UTC
国别 :
俄罗斯(独联体) (CIS)
星等 :
--
Orbit Information
数据来源 国际轨道数据 AOE轨道数据
星历时间 2026-04-29T21:02:58+0800
4小时前
查看轨道信息
2026-04-24T04:00:00+0800
5天前
查看轨道信息
半长轴 7047.677km 7047.973km
偏心率 0.0432487 0.0432412
轨道倾角 82.934° 82.936°
近地点辐角 162.637° 181.224°
升交点赤经 311.271° 316.214°
平近点角 199.017° 275.241°
近地点 364.737km 365.073km
远地点 974.343km 974.599km
周期 98.136分钟 98.142分钟
每日圈数 14.673503 14.67258
Detailed Information
使用方式:
暂无
2D Orbit Map
3D Orbit Map
Orbit Altitude Analysis Chart
Orbit Inclination Analysis Chart
Orbit Comprehensive Analysis Chart
View Comprehensive Chart